This demonstration page uses our WeatherBlox Daily Observations layout. Learn more.

36.17497, -115.13722

Hourly Observations for March 2, 2018

Temp ( °F °C ) Dew Point ( °F °C ) Humidity (%) Winds ( mph kmh ) Pressure ( in mb ) Visibility ( mi km ) Precip ( " mm )
12:53 am 00:53 Clear 50 10 21 -6.1 32 32 ESE 9 15 29.98 1015 10 16.0934 0 0
1:53 am 01:53 Clear 51 10.6 21 -6.1 31 31 VRB 7 11 29.97 1015 10 16.0934 0 0
2:53 am 02:53 Clear 50 10 21 -6.1 32 32 SE 9 15 29.95 1014 10 16.0934 0 0
3:53 am 03:53 Clear 51 10.6 24 -4.4 35 35 SE 10 17 29.95 1014 10 16.0934 0 0
4:53 am 04:53 Clear 51 10.6 28 -2.2 41 41 SSE 16 26 29.93 1014 10 16.0934 0 0
5:53 am 05:53 Clear 50 10 27 -2.8 41 41 S 14 22 29.94 1014 10 16.0934 0 0
6:53 am 06:53 Sunny 52 11.1 27 -2.8 38 38 S 17 28 29.95 1014 10 16.0934 0 0
7:53 am 07:53 Sunny 55 12.8 26 -3.3 33 33 S 24 39 29.95 1014 10 16.0934 0 0
8:53 am 08:53 Sunny 60 15.6 29 -1.7 31 31 SSW 20 31 29.94 1014 10 16.0934 0 0
9:53 am 09:53 Sunny 62 16.7 29 -1.7 29 29 SW 26 43 29.93 1013 10 16.0934 0 0
10:53 am 10:53 Sunny 64 17.8 28 -2.2 26 26 SSW 21 33 29.93 1014 10 16.0934 0 0
11:53 am 11:53 Sunny 66 18.9 29 -1.7 25 25 SW 23 37 29.91 1013 10 16.0934 0 0
12:53 pm 12:53 Sunny 67 19.4 30 -1.1 25 25 SW 25 41 29.87 1012 10 16.0934 0 0
1:53 pm 13:53 Sunny 68 20 31 -0.6 25 25 SW 18 30 29.86 1011 10 16.0934 0 0
2:53 pm 14:53 Sunny 67 19.4 30 -1.1 25 25 SW 24 39 29.85 1011 10 16.0934 0 0
3:53 pm 15:53 Sunny 66 18.9 29 -1.7 25 25 SSW 23 37 29.83 1010 10 16.0934 0 0
4:53 pm 16:53 Sunny 64 17.8 29 -1.7 27 27 SW 18 30 29.85 1011 10 16.0934 0 0
5:53 pm 17:53 Clear 63 17.2 29 -1.7 28 28 SSW 16 26 29.86 1011 10 16.0934 0 0
6:53 pm 18:53 Mostly Clear 62 16.7 32 0 32 32 S 9 15 29.86 1011 10 16.0934 0 0
7:53 pm 19:53 Clear 61 16.1 32 0 34 34 S 14 22 29.86 1011 10 16.0934 0 0
8:53 pm 20:53 Clear 60 15.6 33 0.6 36 36 SSW 15 24 29.86 1011 10 16.0934 0 0
9:53 pm 21:53 Clear 59 15 35 1.7 41 41 SSW 16 26 29.87 1011 10 16.0934 0 0
10:53 pm 22:53 Clear 58 14.4 36 2.2 44 44 SW 12 19 29.87 1012 10 16.0934 0 0
11:53 pm 23:53 Clear 56 13.3 37 2.8 49 49 SSW 13 20 29.88 1012 10 16.0934 0 0

Powered by AerisWeather